Regional Weather Roundup
Issued by NWS

Home | Current Version | Previous Version | Text Only | Print | Product List | Glossary Off
Versions: 1 2 3 4 5 6 7 8 9 10 11 12 13 14 15 16 17 18 19 20 21 22 23 24 25 26 27 28 29 30 31 32 33 34 35 36 37 38 39 40 41 42 43 44 45 46 47 48 49 50

000
ASUS43 KMKX 261259
RWRWI

WISCONSIN REGIONAL WEATHER ROUNDUP
NATIONAL WEATHER SERVICE MILWAUKEE/SULLIVAN WI
800 AM CDT THU APR 26 2018

NOTE: "FAIR" INDICATES FEW OR NO CLOUDS BELOW 12,000 FEET WITH NO
SIGNIFICANT WEATHER AND/OR OBSTRUCTIONS TO VISIBILITY.

WIZ001-002-006>008-014>016-023>028-261400-
NORTHWEST WISCONSIN

CITY           SKY/WX    TMP DP  RH WIND       PRES   REMARKS
SUPERIOR ARPT  FAIR      41  32  69 W7        29.80F
ASHLAND        FAIR      48  31  51 SW8       29.82F
HAYWARD        FAIR      41  32  70 SW3       29.85S
SIREN          FAIR      46  33  62 SW8       29.84F
CUMBERLAND     FAIR      36  30  80 CALM      29.87R
RICE LAKE      FAIR      39  32  76 CALM      29.89S
CHETEK         FAIR      34  28  80 CALM      29.88S
LADYSMITH      FAIR      39  30  68 S3        29.89S
EAU CLAIRE     NOT AVBL
MENOMONIE      FAIR      38  33  81 CALM      29.90R
NEW RICHMOND   FAIR      42  32  68 SW6       29.88R
OSCEOLA        FAIR      40  34  77 CALM      29.90R
$$

WIZ003>005-009-010-017-018-261400-
NORTH CENTRAL WISCONSIN

CITY           SKY/WX    TMP DP  RH WIND       PRES   REMARKS
MANITOWISH WTR FAIR      33  28  80 S3        29.84F
ARBOR VITAE    FAIR      37  29  74 CALM      29.86R
WOODRUFF       FAIR      37  29  74 CALM      29.86R
RHINELANDER    FAIR      42  28  57 W6        29.87R
EAGLE RIVER    FAIR      35  26  70 SW3       29.85S
LAND O LAKES   FAIR      36  24  61 CALM      29.87S
PHILLIPS       FAIR      38  29  69 CALM      29.87S
TOMAHAWK       FAIR      37  28  71 CALM      29.88S
MEDFORD        FAIR      38  30  74 S3        29.88S
MERRILL        FAIR      31  28  87 CALM      29.89F
$$

WIZ029-030-035-036-043>047-261400-
CENTRAL WISCONSIN

CITY           SKY/WX    TMP DP  RH WIND       PRES   REMARKS
WAUSAU         FAIR      40  31  70 CALM      29.88S
MOSINEE        MOSUNNY   39  34  81 CALM      29.90S
MARSHFIELD     FAIR      44  32  62 SW3       29.88S
STEVENS POINT  FAIR      37  33  86 CALM      29.91S
WAUPACA        FAIR      42  35  74 S3        29.92S
WAUTOMA        FAIR      40  34  79 SW3       29.93F
WISC RAPIDS    FAIR      41  31  67 S6        29.92R
CAMP DOUGLAS   MOSUNNY   45  30  57 S5        29.91S
$$

WIZ011>013-019>022-031-037>040-048>050-261400-
NORTHEAST WISCONSIN

CITY           SKY/WX    TMP DP  RH WIND       PRES   REMARKS
ANTIGO         FAIR      35  31  85 CALM      29.88S
SHAWANO        FAIR      40  34  80 CALM      29.91S
OCONTO         FAIR      35  32  87 CALM      29.90F
STURGEON BAY   FAIR      42  34  73 SW7       29.91S
GREEN BAY      FAIR      41  35  79 SW6       29.92S
MANITOWOC      FAIR      42  34  73 SW8       29.94S
APPLETON       SUNNY     41  32  70 SW7       29.91S
CLINTONVILLE   FAIR      39  32  76 CALM      29.91S
OSHKOSH        FAIR      43  34  70 SW8       29.92S
$$

WIZ032>034-041-042-053>061-261400-
SOUTHWEST WISCONSIN

CITY           SKY/WX    TMP DP  RH WIND       PRES   REMARKS
LA CROSSE      FAIR      45  38  76 S7        29.93R
SPARTA         FAIR      33  30  87 CALM      29.93S
VIROQUA        FAIR      45  33  64 S3        29.92S
BOSCOBEL       FAIR      40  35  83 CALM      29.95S
PRAIRIE DU CHI FAIR      39  31  72 E3        29.95R
PLATTEVILLE    FAIR      40  36  85 S6        29.95S
$$

WIZ056-057-062-063-064-067-068-261400-
SOUTH CENTRAL WISCONSIN

CITY           SKY/WX    TMP DP  RH WIND       PRES   REMARKS
REEDSBURG      FAIR      42  34  74 S5        29.94R
BARABOO/DELLS  FAIR      42  33  71 SW3       29.93S
LONE ROCK      NOT AVBL
MINERAL POINT  FAIR      39  36  87 S3        29.94S
MADISON        PTSUNNY   44  32  62 S8        29.94F
MIDDLETON      FAIR      43  32  64 SW3       29.95S
WATERTOWN      FAIR      38  35  89 CALM      29.95S
MONROE         FAIR      43  32  65 SW9       29.95R
JANESVILLE     SUNNY     39  34  81 CALM      29.96S
$$

WIZ051-052-058>065-066-070>072-261400-
SOUTHEAST WISCONSIN

CITY           SKY/WX    TMP DP  RH WIND       PRES   REMARKS
MILWAUKEE      FAIR      44  32  62 W3        29.96F
WAUKESHA       SUNNY     39  32  75 CALM      29.96F
MILWAUKEE/TIMM SUNNY     39  30  70 SW5       29.97S
RACINE         FAIR      42  32  67 W3        29.98S
BURLINGTON     FAIR      35  31  87 CALM      29.96F
KENOSHA        FAIR      42  33  70 CALM      29.97S
FOND DU LAC    FAIR      42  32  67 SW12      29.93F
SHEBOYGAN      FAIR      42  35  76 SW6       29.93F
WEST BEND      FAIR      37  36  93 CALM      29.95S
JUNEAU         FAIR      37  32  81 S5        29.96S WCI  34
$$

LSZ147-162-261400-
LAKE SUPERIOR

STATION/POSITION TIME  TEMP    WIND        PRES    WAVE
                       AIR SEA DIR/SP/G            HT/PER
                 (UTC) (F)     (DEG/KT/KT) (MB)    (FT/S)
DEVILS ISLAND    1200   44     220/ 11/ 13 1009.4F
SAXON HARBOR     1240   47     190/  7/ 12 1009.5S
$$

LMZ867-665-643>646-261400-
LAKE MICHIGAN

STATION/POSITION TIME  TEMP    WIND        PRES    WAVE
                       AIR SEA DIR/SP/G            HT/PER
                 (UTC) (F)     (DEG/KT/KT) (MB)    (FT/S)
NORTHPORT PIER   1240   43                 1012.5S
KEWAUNEE LAKESHO 1230   39     180/  2/  4 1012.6R
SHEBOYGAN LAKESH 1200   37     200/  8/  9 1014.4R
PORT WASHINGTON  1230   41     180/  5/  6 1015.2F
MILWAUKEE LAKESH 1230   40     210/  5/  6   N/A
KENOSHA   LAKESH 1200   39                 1014.9
$$

TC  - TEMPERATURE IN CELSIUS
VSB - VISIBILITY IN STATUTE MILES
WCI - WIND CHILL INDEX
HX  - HEAT INDEX





USA.gov is the U.S. government's official web portal to all federal, state and local government web resources and services.